Tracking 30918 objects as of 2-Jul-2025
HD Live streaming from Space Station
objects crossing your sky now

STARLINK-11489

Track STARLINK-11489 now!
10-day predictions
STARLINK-11489 is classified as:


NORAD ID: 62271
Int'l Code: 2024-237E
Perigee: 361.8 km
Apogee: 364.5 km
Inclination: 43.0 °
Period: 91.7 minutes
Semi major axis: 6734 km
RCS: Unknown
Launch date: December 8, 2024
Source: United States (US)
Launch site: AIR FORCE EASTERN TEST RANGE (AFETR)
Your satellite tracking list
NOAA 16 DEB
Track 1 satellite(s)




NASA's NSSDC Master Catalog

Two Line Element Set (TLE):
1 62271U 24237E   25182.90288965  .00277125  00000-0  20769-2 0  9991
2 62271  42.9999 128.8424 0001970 239.9950 120.0723 15.71012401 33604
Source of the keplerian elements: AFSPC